Location: Saluda
(35.2377°N, 82.3468°W)
Time: 14:03:37
(UTC+00:00)

SR - Pass Details

Date: 07 October 2022
Orbit: 577 x 875 km, 66.7° (Epoch: 28 November)

Event Time Altitude Azimuth Distance (km) Brightness Sun altitude
Rises 23:04:52 0° 152° (SSE) 3,395 ? -0.8°
Reaches altitude 10° 23:09:11 10° 121° (ESE) 2,502 ? -1.7°
Maximum altitude 23:11:05 12° 102° (ESE) 2,397 ? -2.1°
Drops below altitude 10° 23:13:00 10° 82° (E) 2,523 ? -2.5°
Sets 23:17:22 0° 52° (NE) 3,465 ? -3.4°
